• In Netherlands
  • List of Countries
  • For 7 days
  • Water Temperature
  • Satellite Maps
  • Weather Map
  • Weather Widgets
  • user-avatar
    Login

    Hourly Weather Tarin Kowt

    Today, 24 February, Saturday

    Time Temperature Precipitation Wind Pressure Humidity
    00:00 +7°C° 0 mm 1 mps 613 mmHg 75%
    01:00 +7°C° 0 mm 1 mps 613 mmHg 76%
    02:00 +7°C° 0 mm 1 mps 613 mmHg 77%
    03:00 +6°C° 0 mm 1 mps 613 mmHg 78%
    04:00 +6°C° 0 mm 1 mps 613 mmHg 79%
    05:00 +6°C° 0 mm 1 mps 613 mmHg 79%
    06:00 +7°C° 0 mm 1 mps 613 mmHg 79%
    07:00 +7°C° 0 mm 1 mps 614 mmHg 78%
    08:00 +8°C° 0 mm 1 mps 615 mmHg 72%
    09:00 +9°C° 0 mm 1 mps 615 mmHg 65%
    10:00 +11°C° 0 mm 1 mps 616 mmHg 59%
    11:00 +12°C° 0 mm 1 mps 616 mmHg 54%
    12:00 +13°C° 0 mm 2 mps 617 mmHg 50%
    13:00 +14°C° 0 mm 2 mps 617 mmHg 45%
    14:00 +14°C° 0 mm 2 mps 617 mmHg 43%
    15:00 +14°C° 0 mm 2 mps 617 mmHg 41%
    16:00 +14°C° 0 mm 2 mps 617 mmHg 38%
    17:00 +13°C° 0 mm 2 mps 617 mmHg 42%
    18:00 +13°C° 0 mm 1 mps 617 mmHg 46%
    19:00 +12°C° 0 mm 1 mps 617 mmHg 51%
    20:00 +11°C° 0 mm 1 mps 617 mmHg 51%
    21:00 +11°C° 0 mm 1 mps 618 mmHg 51%
    22:00 +10°C° 0 mm 2 mps 618 mmHg 51%
    23:00 +9°C° 0 mm 2 mps 618 mmHg 51%

    Tomorrow, 25 February, Sunday

    Time Temperature Precipitation Wind Pressure Humidity
    00:00 +9°C° 0 mm 2 mps 618 mmHg 51%
    01:00 +9°C° 0 mm 3 mps 618 mmHg 51%
    02:00 +9°C° 0 mm 3 mps 617 mmHg 51%
    03:00 +8°C° 0 mm 3 mps 617 mmHg 51%
    04:00 +8°C° 0 mm 3 mps 617 mmHg 51%
    05:00 +8°C° 0 mm 3 mps 617 mmHg 50%
    06:00 +8°C° 0 mm 3 mps 618 mmHg 48%
    07:00 +8°C° 0 mm 3 mps 618 mmHg 47%
    08:00 +10°C° 0 mm 3 mps 619 mmHg 42%
    09:00 +12°C° 0 mm 3 mps 619 mmHg 37%
    10:00 +14°C° 0 mm 3 mps 620 mmHg 32%
    11:00 +15°C° 0 mm 4 mps 620 mmHg 32%
    12:00 +17°C° 0 mm 4 mps 619 mmHg 32%
    13:00 +17°C° 0 mm 5 mps 619 mmHg 32%
    14:00 +16°C° 0.6 mm 5 mps 619 mmHg 38%
    15:00 +15°C° 0.6 mm 5 mps 618 mmHg 44%
    16:00 +15°C° 0.6 mm 5 mps 618 mmHg 50%
    17:00 +14°C° 1.6 mm 4 mps 618 mmHg 58%
    18:00 +12°C° 1.6 mm 4 mps 618 mmHg 66%
    19:00 +11°C° 1.6 mm 3 mps 618 mmHg 73%
    20:00 +11°C° 0.5 mm 3 mps 618 mmHg 74%
    21:00 +11°C° 0.5 mm 3 mps 618 mmHg 75%
    22:00 +12°C° 0.5 mm 2 mps 618 mmHg 75%
    23:00 +12°C° 0.9 mm 2 mps 618 mmHg 76%

    Day after tomorrow, 26 February, Monday

    Time Temperature Precipitation Wind Pressure Humidity
    00:00 +10°C° 0.9 mm 2 mps 618 mmHg 77%
    01:00 +10°C° 0.9 mm 2 mps 617 mmHg 78%
    02:00 +10°C° 0.1 mm 2 mps 617 mmHg 79%
    03:00 +10°C° 0.1 mm 2 mps 617 mmHg 79%
    04:00 +10°C° 0.1 mm 2 mps 616 mmHg 80%
    05:00 +10°C° 0.1 mm 2 mps 617 mmHg 78%
    06:00 +10°C° 0.1 mm 2 mps 617 mmHg 77%
    07:00 +10°C° 0.1 mm 3 mps 617 mmHg 76%
    08:00 +11°C° 0.5 mm 4 mps 617 mmHg 72%
    09:00 +10°C° 0.5 mm 5 mps 618 mmHg 68%
    10:00 +11°C° 0.5 mm 7 mps 618 mmHg 64%
    11:00 +11°C° 0.9 mm 7 mps 617 mmHg 64%
    12:00 +10°C° 0.9 mm 7 mps 617 mmHg 64%
    13:00 +10°C° 0.9 mm 7 mps 616 mmHg 64%
    14:00 +10°C° 1.1 mm 6 mps 616 mmHg 67%
    15:00 +9°C° 1.1 mm 5 mps 616 mmHg 70%
    16:00 +10°C° 1.1 mm 4 mps 615 mmHg 73%
    17:00 +10°C° 0.9 mm 3 mps 616 mmHg 74%
    18:00 +10°C° 0.9 mm 3 mps 616 mmHg 75%
    19:00 +10°C° 0.9 mm 2 mps 617 mmHg 76%
    20:00 +10°C° 0.7 mm 2 mps 617 mmHg 76%
    21:00 +9°C° 0.7 mm 2 mps 617 mmHg 77%
    22:00 +10°C° 0.7 mm 1 mps 618 mmHg 77%
    23:00 +9°C° 0.1 mm 2 mps 617 mmHg 77%

    27 February, Tuesday

    Time Temperature Precipitation Wind Pressure Humidity
    00:00 +9°C° 0.1 mm 2 mps 617 mmHg 77%
    01:00 +8°C° 0.1 mm 2 mps 617 mmHg 77%
    02:00 +8°C° 0.1 mm 2 mps 617 mmHg 76%
    03:00 +8°C° 0.1 mm 2 mps 617 mmHg 76%
    04:00 +8°C° 0.1 mm 2 mps 617 mmHg 75%
    05:00 +8°C° 0 mm 2 mps 617 mmHg 74%
    06:00 +8°C° 0 mm 2 mps 618 mmHg 73%
    07:00 +8°C° 0 mm 2 mps 618 mmHg 72%
    08:00 +10°C° 0 mm 2 mps 618 mmHg 66%
    09:00 +12°C° 0 mm 2 mps 619 mmHg 61%
    10:00 +13°C° 0 mm 2 mps 620 mmHg 55%
    11:00 +14°C° 0.2 mm 2 mps 619 mmHg 53%
    12:00 +14°C° 0.2 mm 1 mps 619 mmHg 52%
    13:00 +15°C° 0.2 mm 1 mps 618 mmHg 50%
    14:00 +14°C° 0.5 mm 1 mps 618 mmHg 51%
    15:00 +14°C° 0.5 mm 1 mps 618 mmHg 52%
    16:00 +14°C° 0.5 mm 1 mps 617 mmHg 53%
    17:00 +14°C° 0.1 mm 1 mps 617 mmHg 55%
    18:00 +13°C° 0.1 mm 2 mps 618 mmHg 58%
    19:00 +13°C° 0.1 mm 2 mps 618 mmHg 60%
    20:00 +12°C° 0.1 mm 2 mps 618 mmHg 60%
    21:00 +12°C° 0.1 mm 2 mps 618 mmHg 60%
    22:00 +11°C° 0.1 mm 3 mps 618 mmHg 60%
    23:00 +11°C° 0 mm 3 mps 617 mmHg 60%

    28 February, Wednesday

    Time Temperature Precipitation Wind Pressure Humidity
    00:00 +10°C° 0 mm 3 mps 617 mmHg 60%
    01:00 +10°C° 0 mm 3 mps 617 mmHg 60%
    02:00 +10°C° 0 mm 3 mps 616 mmHg 61%
    03:00 +9°C° 0 mm 3 mps 616 mmHg 61%
    04:00 +9°C° 0 mm 3 mps 616 mmHg 61%
    05:00 +9°C° 0 mm 3 mps 616 mmHg 60%
    06:00 +9°C° 0 mm 3 mps 616 mmHg 60%
    07:00 +9°C° 0 mm 3 mps 617 mmHg 59%
    08:00 +11°C° 0 mm 3 mps 617 mmHg 54%
    09:00 +12°C° 0 mm 3 mps 618 mmHg 49%
    10:00 +14°C° 0 mm 2 mps 618 mmHg 44%
    11:00 +14°C° 0 mm 3 mps 618 mmHg 43%
    12:00 +16°C° 0 mm 3 mps 617 mmHg 42%
    13:00 +16°C° 0 mm 3 mps 617 mmHg 42%
    14:00 +16°C° 0.2 mm 2 mps 617 mmHg 42%
    15:00 +16°C° 0.2 mm 2 mps 616 mmHg 43%
    16:00 +16°C° 0.2 mm 2 mps 616 mmHg 44%
    17:00 +15°C° 0.6 mm 2 mps 616 mmHg 49%
    18:00 +14°C° 0.6 mm 1 mps 616 mmHg 55%
    19:00 +14°C° 0.6 mm 1 mps 615 mmHg 61%
    20:00 +13°C° 1 mm 1 mps 615 mmHg 62%
    21:00 +13°C° 1 mm 2 mps 615 mmHg 63%
    22:00 +12°C° 1 mm 2 mps 615 mmHg 65%
    23:00 +12°C° 0.7 mm 2 mps 615 mmHg 65%

    1 March, Thursday

    Time Temperature Precipitation Wind Pressure Humidity
    00:00 +12°C° 0.7 mm 2 mps 615 mmHg 66%
    01:00 +12°C° 0.7 mm 2 mps 615 mmHg 67%
    02:00 +12°C° 0.7 mm 2 mps 614 mmHg 68%
    03:00 +10°C° 0.7 mm 2 mps 614 mmHg 70%
    04:00 +10°C° 0.7 mm 2 mps 614 mmHg 71%
    05:00 +10°C° 0.7 mm 2 mps 614 mmHg 72%
    06:00 +10°C° 0.7 mm 2 mps 614 mmHg 74%
    07:00 +9°C° 0.7 mm 2 mps 614 mmHg 75%
    08:00 +10°C° 0 mm 2 mps 615 mmHg 69%
    09:00 +12°C° 0 mm 2 mps 615 mmHg 63%
    10:00 +13°C° 0 mm 2 mps 616 mmHg 57%
    11:00 +14°C° 0.4 mm 2 mps 615 mmHg 54%
    12:00 +15°C° 0.4 mm 1 mps 615 mmHg 51%
    13:00 +15°C° 0.4 mm 1 mps 615 mmHg 48%
    14:00 +16°C° 0.4 mm 2 mps 615 mmHg 45%
    15:00 +16°C° 0.4 mm 2 mps 614 mmHg 43%
    16:00 +16°C° 0.4 mm 3 mps 614 mmHg 41%
    17:00 +15°C° 0.1 mm 2 mps 614 mmHg 46%
    18:00 +15°C° 0.1 mm 2 mps 614 mmHg 51%
    19:00 +14°C° 0.1 mm 2 mps 614 mmHg 56%
    20:00 +13°C° 0.2 mm 1 mps 615 mmHg 57%
    21:00 +13°C° 0.2 mm 1 mps 615 mmHg 59%
    22:00 +12°C° 0.2 mm 1 mps 615 mmHg 61%
    23:00 +12°C° 0 mm 1 mps 615 mmHg 62%
    Show more